User: anonymous   Login
Location: Artiguedieu
(43.5000°N, 0.5454°E)
Time: 12:53:07
(UTC+00:00)
Language:

BEESAT 3 - Orbit

View from above orbital plane
View from above orbital plane
View from above satellite
View from above satellite

Ground track
Ground track

The orbit data is extracted from the following two-line orbital elements,

1 39134U 13015E   21266.55740026  .00005226  00000-0  22804-3 0  9990
2 39134  64.8637 213.3095 0018475 315.6231  44.3416 15.23119459466159
Epoch (UTC): 23 September 2021 13:22:39
Eccentricity: 0.0018475
inclination: 64.8637°
perigee height: 484 km
apogee height: 509 km
right ascension of ascending node: 213.3095°
argument of perigee: 315.6231°
revolutions per day: 15.23119459
mean anomaly at epoch: 44.3416°
orbit number at epoch: 46615

The dashed part of the orbit path shows where the satellite is in the earth's shadow,  

DLR